Погода в Силао

Реюньон     21°08′12″S   55°28′10″E
темп.,
°C
ветер,
м/с
пор.,
м/с
влажн.,
%
обл.,
%
осадки,
мм/ч
давл.,
гПа
погр.,
м
18 мая, вт
вт1801:00+17св11815 0.0 102094
04:00+17св11720 0.0 101999
07:00+17ссв22630 0.0 102070
10:00+21ююз11530 0.0 1020630
13:00+22ююз326330 0.0 10181015
16:00+20юз217841 0.2 1018616
19:00+18юв11882 0.1 1019112
22:00+17в12866 0.1 102073
19 мая, ср
ср1901:00+17всв12770 0.0 101986
04:00+16всв22640 0.0 1018101
07:00+15всв23862 0.0 1019125
10:00+20ююв44694 0.0 1019602
13:00+21ю446814 0.0 1017762
16:00+19ю447619 0.1 1017705
19:00+17ююв459251 0.8 1019392
22:00+17юв468855 1.6 1019484
20 мая, чт
чт2001:00+16юв469155 0.5 1019386
04:00+16юв578913 0.9 1018455
07:00+15вюв578946 0.4 1020417
10:00+18юв687724 0.8 1021825
13:00+18юв787877 0.4 1019877
16:00+17юв677524 0.6 1019837
19:00+15вюв68749 0.1 1020561
22:00+15вюв578244 0.2 1021519
21 мая, пт
пт2101:00+15в46768 0.1 1021341
04:00+14в468616 0.1 1020312
07:00+14в468319 0.1 1021337
10:00+18вюв566742 0.2 10221027
13:00+19вюв666755 0.1 10201087
16:00+17юв567638 0.3 1020582
19:00+15вюв468463 0.1 1021301
22:00+15в357711 0.1 1022291
22 мая, сб
сб2201:00+15вюв46767 0.1 1021370
04:00+15в348226 0.1 1020239
07:00+14вюв458413 0.0 1021287
10:00+17юв557020 0.1 1021816
13:00+19ююв556210 0.0 1019954
16:00+18юв667960 0.2 1019702
19:00+15вюв458214 0.1 1021400
22:00+14в358210 0.1 1021290